Year,Month,Day,Hour,Minute,Value (Times are PST for temperature in C)
2022,03,21,08,44,5.50
2022,03,21,08,45,5.50
2022,03,21,08,46,5.60
2022,03,21,08,47,5.50
2022,03,21,08,48,5.60
2022,03,21,08,49,5.60
2022,03,21,08,50,5.60
2022,03,21,08,51,5.60
2022,03,21,08,52,5.60
2022,03,21,08,53,5.60
2022,03,21,08,54,5.60
2022,03,21,08,55,5.60
2022,03,21,08,56,5.60
2022,03,21,08,57,5.60
2022,03,21,08,58,5.60
2022,03,21,08,59,5.60
2022,03,21,09,00,5.70
2022,03,21,09,01,5.70
2022,03,21,09,02,5.70
2022,03,21,09,03,5.70
2022,03,21,09,04,5.70
2022,03,21,09,05,5.70
2022,03,21,09,06,5.70
2022,03,21,09,07,5.70
2022,03,21,09,08,5.70
2022,03,21,09,09,5.70
2022,03,21,09,10,5.70
2022,03,21,09,11,5.70
2022,03,21,09,12,5.70
2022,03,21,09,13,5.70
2022,03,21,09,14,5.70
2022,03,21,09,15,5.70
2022,03,21,09,16,5.80
2022,03,21,09,17,5.80
2022,03,21,09,18,5.80
2022,03,21,09,19,5.80
2022,03,21,09,20,5.80
2022,03,21,09,21,5.80
2022,03,21,09,22,5.80
2022,03,21,09,23,5.80
2022,03,21,09,24,5.80
2022,03,21,09,25,5.80
2022,03,21,09,26,5.80
2022,03,21,09,27,5.80
2022,03,21,09,28,5.80
2022,03,21,09,29,5.80
2022,03,21,09,30,5.80
2022,03,21,09,31,5.80
2022,03,21,09,32,5.80
2022,03,21,09,33,5.80
2022,03,21,09,34,5.80
2022,03,21,09,35,5.80
2022,03,21,09,36,5.80
2022,03,21,09,37,5.80
2022,03,21,09,38,5.90
2022,03,21,09,39,5.80
2022,03,21,09,40,5.80
2022,03,21,09,41,5.80
2022,03,21,09,42,5.80
2022,03,21,09,43,5.80
2022,03,21,09,44,5.80
2022,03,21,09,45,5.80
2022,03,21,09,46,5.80
2022,03,21,09,47,5.80
2022,03,21,09,48,5.80
2022,03,21,09,49,5.80
2022,03,21,09,50,5.80
2022,03,21,09,51,5.80
2022,03,21,09,52,5.80
2022,03,21,09,53,5.80
2022,03,21,09,54,5.80
2022,03,21,09,55,5.90
2022,03,21,09,56,5.90
2022,03,21,09,57,5.90
2022,03,21,09,58,5.90
2022,03,21,09,59,5.90
2022,03,21,10,00,5.80
2022,03,21,10,01,5.80
2022,03,21,10,02,5.80
2022,03,21,10,03,5.80
2022,03,21,10,04,5.80
2022,03,21,10,05,5.80
2022,03,21,10,06,5.80
2022,03,21,10,07,5.80
2022,03,21,10,08,5.90
2022,03,21,10,09,5.90
2022,03,21,10,10,5.90
2022,03,21,10,11,5.90
2022,03,21,10,12,5.90
2022,03,21,10,13,5.90
2022,03,21,10,14,5.90
2022,03,21,10,15,5.90
2022,03,21,10,16,5.90
2022,03,21,10,17,5.90
2022,03,21,10,18,5.90
2022,03,21,10,19,5.90
2022,03,21,10,20,5.90
2022,03,21,10,21,5.90
2022,03,21,10,22,6.00
2022,03,21,10,23,5.90
2022,03,21,10,24,6.00
2022,03,21,10,25,6.00
2022,03,21,10,26,6.00
2022,03,21,10,27,6.00
2022,03,21,10,28,6.00
2022,03,21,10,29,6.00
2022,03,21,10,30,6.00
2022,03,21,10,31,6.00
2022,03,21,10,32,5.90
2022,03,21,10,33,5.90
2022,03,21,10,34,5.90
2022,03,21,10,35,6.00
2022,03,21,10,36,6.00
2022,03,21,10,37,6.00
2022,03,21,10,38,6.00
2022,03,21,10,39,6.10
2022,03,21,10,40,6.10
2022,03,21,10,41,6.10
2022,03,21,10,42,6.20
2022,03,21,10,43,6.20
2022,03,21,10,44,6.20
2022,03,21,10,45,6.20
2022,03,21,10,46,6.20
2022,03,21,10,47,6.20
2022,03,21,10,48,6.20
2022,03,21,10,49,6.20
2022,03,21,10,50,6.20
2022,03,21,10,51,6.20
2022,03,21,10,52,6.20
2022,03,21,10,53,6.20
2022,03,21,10,54,6.20
2022,03,21,10,55,6.20
2022,03,21,10,56,6.20
2022,03,21,10,57,6.20
2022,03,21,10,58,6.20
2022,03,21,10,59,6.20
2022,03,21,11,00,6.20
2022,03,21,11,01,6.20
2022,03,21,11,02,6.20
2022,03,21,11,03,6.20
2022,03,21,11,04,6.20
2022,03,21,11,05,6.20
2022,03,21,11,06,6.20
2022,03,21,11,07,6.20
2022,03,21,11,08,6.20
2022,03,21,11,09,6.20
2022,03,21,11,10,6.20
2022,03,21,11,11,6.20
2022,03,21,11,12,6.20
2022,03,21,11,13,6.20
2022,03,21,11,14,6.20
2022,03,21,11,15,6.20
2022,03,21,11,16,6.20
2022,03,21,11,17,6.20
2022,03,21,11,18,6.20
2022,03,21,11,19,6.20
2022,03,21,11,20,6.20
2022,03,21,11,21,6.20
2022,03,21,11,22,6.20
2022,03,21,11,23,6.20
2022,03,21,11,24,6.20
2022,03,21,11,25,6.20
2022,03,21,11,26,6.20
2022,03,21,11,27,6.20
2022,03,21,11,28,6.20
2022,03,21,11,29,6.20
2022,03,21,11,30,6.20
2022,03,21,11,31,6.20
2022,03,21,11,32,6.20
2022,03,21,11,33,6.20
2022,03,21,11,34,6.20
2022,03,21,11,35,6.20
2022,03,21,11,36,6.20
2022,03,21,11,37,6.20
2022,03,21,11,38,6.20
2022,03,21,11,39,6.20
2022,03,21,11,40,6.20
2022,03,21,11,41,6.20
2022,03,21,11,42,6.20
2022,03,21,11,43,6.20
2022,03,21,11,44,6.20
2022,03,21,11,45,6.20
2022,03,21,11,46,6.20
2022,03,21,11,47,6.20
2022,03,21,11,48,6.20
2022,03,21,11,49,6.20
2022,03,21,11,50,6.20
2022,03,21,11,51,6.20
2022,03,21,11,52,6.20
2022,03,21,11,53,6.20
2022,03,21,11,54,6.20
2022,03,21,11,55,6.20
2022,03,21,11,56,6.20
2022,03,21,11,57,6.20
2022,03,21,11,58,6.20
2022,03,21,11,59,6.20
2022,03,21,12,00,6.20
2022,03,21,12,01,6.30
2022,03,21,12,02,6.30
2022,03,21,12,03,6.30
2022,03,21,12,04,6.30
2022,03,21,12,05,6.30
2022,03,21,12,06,6.30
2022,03,21,12,07,6.30
2022,03,21,12,08,6.30
2022,03,21,12,09,6.30
2022,03,21,12,10,6.30
2022,03,21,12,11,6.30
2022,03,21,12,12,6.30
2022,03,21,12,13,6.30
2022,03,21,12,14,6.30
2022,03,21,12,15,6.30
2022,03,21,12,16,6.30
2022,03,21,12,17,6.30
2022,03,21,12,18,6.30
2022,03,21,12,19,6.30
2022,03,21,12,20,6.30
2022,03,21,12,21,6.30
2022,03,21,12,22,6.30
2022,03,21,12,23,6.30
2022,03,21,12,24,6.30
2022,03,21,12,25,6.40
2022,03,21,12,26,6.30
2022,03,21,12,27,6.40
2022,03,21,12,28,6.40
2022,03,21,12,29,6.30
2022,03,21,12,30,6.30
2022,03,21,12,31,6.30
2022,03,21,12,32,6.30
2022,03,21,12,33,6.40
2022,03,21,12,34,6.40
2022,03,21,12,35,6.40
2022,03,21,12,36,6.40
2022,03,21,12,37,6.40
2022,03,21,12,38,6.40
2022,03,21,12,39,6.40
2022,03,21,12,40,6.40
2022,03,21,12,41,6.40
2022,03,21,12,42,6.40
2022,03,21,12,43,6.40
2022,03,21,12,44,6.50
2022,03,21,12,45,6.50
2022,03,21,12,46,6.50
2022,03,21,12,47,6.50
2022,03,21,12,48,6.60
2022,03,21,12,49,6.50
2022,03,21,12,50,6.50
2022,03,21,12,51,6.60
2022,03,21,12,52,6.60
2022,03,21,12,53,6.60
2022,03,21,12,54,6.60
2022,03,21,12,55,6.60
2022,03,21,12,56,6.60
2022,03,21,12,57,6.60
2022,03,21,12,58,6.60
2022,03,21,12,59,6.60
2022,03,21,13,00,6.60
2022,03,21,13,01,6.60
2022,03,21,13,02,6.50
2022,03,21,13,03,6.50
2022,03,21,13,04,6.50
2022,03,21,13,05,6.50
2022,03,21,13,06,6.50
2022,03,21,13,07,6.40
2022,03,21,13,08,6.40
2022,03,21,13,09,6.40
2022,03,21,13,10,6.30
2022,03,21,13,11,6.30
2022,03,21,13,12,6.30
2022,03,21,13,13,6.30
2022,03,21,13,14,6.30
2022,03,21,13,15,6.30
2022,03,21,13,16,6.30
2022,03,21,13,17,6.30
2022,03,21,13,18,6.30
2022,03,21,13,19,6.30
2022,03,21,13,20,6.30
2022,03,21,13,21,6.30
2022,03,21,13,22,6.30
2022,03,21,13,23,6.30
2022,03,21,13,24,6.30
2022,03,21,13,25,6.20
2022,03,21,13,26,6.20
2022,03,21,13,27,6.20
2022,03,21,13,28,6.30
2022,03,21,13,29,6.30
2022,03,21,13,30,6.30
2022,03,21,13,31,6.30
2022,03,21,13,32,6.30
2022,03,21,13,33,6.30
2022,03,21,13,34,6.30
2022,03,21,13,35,6.30
2022,03,21,13,36,6.30
2022,03,21,13,37,6.30
2022,03,21,13,38,6.30
2022,03,21,13,39,6.30
2022,03,21,13,40,6.30
2022,03,21,13,41,6.30
2022,03,21,13,42,6.30
2022,03,21,13,43,6.30
2022,03,21,13,44,6.30
2022,03,21,13,45,6.30
2022,03,21,13,46,6.30
2022,03,21,13,47,6.30
2022,03,21,13,48,6.30
2022,03,21,13,49,6.30
2022,03,21,13,50,6.30
2022,03,21,13,51,6.30
2022,03,21,13,52,6.30
2022,03,21,13,53,6.30
2022,03,21,13,54,6.30
2022,03,21,13,55,6.30
2022,03,21,13,56,6.30
2022,03,21,13,57,6.30
2022,03,21,13,58,6.30
2022,03,21,13,59,6.30
2022,03,21,14,00,6.30
2022,03,21,14,01,6.30
2022,03,21,14,02,6.30
2022,03,21,14,03,6.30
2022,03,21,14,04,6.30
2022,03,21,14,05,6.30
2022,03,21,14,06,6.30
2022,03,21,14,07,6.30
2022,03,21,14,08,6.30
2022,03,21,14,09,6.30
2022,03,21,14,10,6.30
2022,03,21,14,11,6.30
2022,03,21,14,12,6.30
2022,03,21,14,13,6.30
2022,03,21,14,14,6.30
2022,03,21,14,15,6.30
2022,03,21,14,16,6.30
2022,03,21,14,17,6.30
2022,03,21,14,18,6.30
2022,03,21,14,19,6.30
2022,03,21,14,20,6.30
2022,03,21,14,21,6.30
2022,03,21,14,22,6.30
2022,03,21,14,23,6.30
2022,03,21,14,24,6.30
2022,03,21,14,25,6.40
2022,03,21,14,26,6.40
2022,03,21,14,27,6.40
2022,03,21,14,28,6.40
2022,03,21,14,29,6.40
2022,03,21,14,30,6.40
2022,03,21,14,31,6.40
2022,03,21,14,32,6.40
2022,03,21,14,33,6.40
2022,03,21,14,34,6.40
2022,03,21,14,35,6.40
2022,03,21,14,36,6.40
2022,03,21,14,37,6.40
2022,03,21,14,38,6.40
2022,03,21,14,39,6.40
2022,03,21,14,40,6.50
2022,03,21,14,41,6.50
2022,03,21,14,42,6.50
2022,03,21,14,43,6.50
2022,03,21,14,44,6.50
2022,03,21,14,45,6.50
2022,03,21,14,46,6.50
2022,03,21,14,47,6.50
2022,03,21,14,48,6.50
2022,03,21,14,49,6.50
2022,03,21,14,50,6.50
2022,03,21,14,51,6.50
2022,03,21,14,52,6.60
2022,03,21,14,53,6.60
2022,03,21,14,54,6.60
2022,03,21,14,55,6.60
2022,03,21,14,56,6.60
2022,03,21,14,57,6.60
2022,03,21,14,58,6.60
2022,03,21,14,59,6.60
2022,03,21,15,00,6.60
2022,03,21,15,01,6.60
2022,03,21,15,02,6.60
2022,03,21,15,03,6.60
2022,03,21,15,04,6.60
2022,03,21,15,05,6.60
2022,03,21,15,06,6.60
2022,03,21,15,07,6.60
2022,03,21,15,08,6.60
2022,03,21,15,09,6.60
2022,03,21,15,10,6.60
2022,03,21,15,11,6.60
2022,03,21,15,12,6.60
2022,03,21,15,13,6.60
2022,03,21,15,14,6.70
2022,03,21,15,15,6.70
2022,03,21,15,16,6.70
2022,03,21,15,17,6.70
2022,03,21,15,18,6.70
2022,03,21,15,19,6.70
2022,03,21,15,20,6.70
2022,03,21,15,21,6.70
2022,03,21,15,22,6.70
2022,03,21,15,23,6.70
2022,03,21,15,24,6.70
2022,03,21,15,25,6.70
2022,03,21,15,26,6.70
2022,03,21,15,27,6.70
2022,03,21,15,28,6.70
2022,03,21,15,29,6.70
2022,03,21,15,30,6.60
2022,03,21,15,31,6.70
2022,03,21,15,32,6.70
2022,03,21,15,33,6.70
2022,03,21,15,34,6.70
2022,03,21,15,35,6.70
2022,03,21,15,36,6.70
2022,03,21,15,37,6.70
2022,03,21,15,38,6.70
2022,03,21,15,39,6.70
2022,03,21,15,40,6.70
2022,03,21,15,41,6.70
2022,03,21,15,42,6.70
2022,03,21,15,43,6.70
2022,03,21,15,44,6.70
2022,03,21,15,45,6.70
2022,03,21,15,46,6.70
2022,03,21,15,47,6.70
2022,03,21,15,48,6.80
2022,03,21,15,49,6.80
2022,03,21,15,50,6.80
2022,03,21,15,51,6.80
2022,03,21,15,52,6.80
2022,03,21,15,53,6.80
2022,03,21,15,54,6.80
2022,03,21,15,55,6.80
2022,03,21,15,56,6.80
2022,03,21,15,57,6.80
2022,03,21,15,58,6.80
2022,03,21,15,59,6.80
2022,03,21,16,00,6.80
2022,03,21,16,01,6.80
2022,03,21,16,02,6.80
2022,03,21,16,03,6.80
2022,03,21,16,04,6.80
2022,03,21,16,05,6.80
2022,03,21,16,06,6.80
2022,03,21,16,07,6.80
2022,03,21,16,08,6.80
2022,03,21,16,09,6.80
2022,03,21,16,10,6.80
2022,03,21,16,11,6.80
2022,03,21,16,12,6.80
2022,03,21,16,13,6.80
2022,03,21,16,14,6.80
2022,03,21,16,15,6.80
2022,03,21,16,16,6.80
2022,03,21,16,17,6.80
2022,03,21,16,18,6.80
2022,03,21,16,19,6.80
2022,03,21,16,20,6.80
2022,03,21,16,21,6.80
2022,03,21,16,22,6.80
2022,03,21,16,23,6.80
2022,03,21,16,24,6.80
2022,03,21,16,25,6.80
2022,03,21,16,26,6.80
2022,03,21,16,27,6.80
2022,03,21,16,28,6.80
2022,03,21,16,29,6.80
2022,03,21,16,30,6.80
2022,03,21,16,31,6.80
2022,03,21,16,32,6.80
2022,03,21,16,33,6.80
2022,03,21,16,34,6.80
2022,03,21,16,35,6.80
2022,03,21,16,36,6.80
2022,03,21,16,37,6.80
2022,03,21,16,38,6.80
2022,03,21,16,39,6.80
2022,03,21,16,40,6.80
2022,03,21,16,41,6.80
2022,03,21,16,42,6.80
2022,03,21,16,43,6.80
2022,03,21,16,44,6.80
2022,03,21,16,45,6.80
2022,03,21,16,46,6.80
2022,03,21,16,47,6.90
2022,03,21,16,48,6.90
2022,03,21,16,49,6.90
2022,03,21,16,50,6.90
2022,03,21,16,51,6.90
2022,03,21,16,52,6.90
2022,03,21,16,53,6.90
2022,03,21,16,54,6.90
2022,03,21,16,55,6.90
2022,03,21,16,56,7.00
2022,03,21,16,57,7.00
2022,03,21,16,58,7.00
2022,03,21,16,59,7.00
2022,03,21,17,00,7.00
2022,03,21,17,01,7.00
2022,03,21,17,02,7.00
2022,03,21,17,03,7.00
2022,03,21,17,04,7.00
2022,03,21,17,05,7.00
2022,03,21,17,06,7.00
2022,03,21,17,07,7.00
2022,03,21,17,08,7.10
2022,03,21,17,09,7.10
2022,03,21,17,10,7.10
2022,03,21,17,11,7.10
2022,03,21,17,12,7.10
2022,03,21,17,13,7.10
2022,03,21,17,14,7.10
2022,03,21,17,15,7.10
2022,03,21,17,16,7.10
2022,03,21,17,17,7.10
2022,03,21,17,18,7.10
2022,03,21,17,19,7.10
2022,03,21,17,20,7.10
2022,03,21,17,21,7.10
2022,03,21,17,22,7.10
2022,03,21,17,23,7.10
2022,03,21,17,24,7.10
2022,03,21,17,25,7.10
2022,03,21,17,26,7.10
2022,03,21,17,27,7.10
2022,03,21,17,28,7.10
2022,03,21,17,29,7.10
2022,03,21,17,30,7.10
2022,03,21,17,31,7.10
2022,03,21,17,32,7.00
2022,03,21,17,33,7.00
2022,03,21,17,34,7.00
2022,03,21,17,35,7.00
2022,03,21,17,36,7.00
2022,03,21,17,37,7.00
2022,03,21,17,38,7.00
2022,03,21,17,39,7.00
2022,03,21,17,40,7.00
2022,03,21,17,41,7.00
2022,03,21,17,42,7.00
2022,03,21,17,43,7.00
2022,03,21,17,44,7.10
2022,03,21,17,45,7.10
2022,03,21,17,46,7.10
2022,03,21,17,47,7.10
2022,03,21,17,48,7.10
2022,03,21,17,49,7.00
2022,03,21,17,50,7.00
2022,03,21,17,51,7.00
2022,03,21,17,52,7.00
2022,03,21,17,53,7.00
2022,03,21,17,54,7.00
2022,03,21,17,55,7.00
2022,03,21,17,56,6.90
2022,03,21,17,57,6.90
2022,03,21,17,58,6.90
2022,03,21,17,59,6.90
2022,03,21,18,00,6.90
2022,03,21,18,01,6.90
2022,03,21,18,02,6.90
2022,03,21,18,03,6.90
2022,03,21,18,04,7.00
2022,03,21,18,05,7.00
2022,03,21,18,06,7.00
2022,03,21,18,07,7.00
2022,03,21,18,08,7.00
2022,03,21,18,09,7.00
2022,03,21,18,10,7.00
2022,03,21,18,11,7.00
2022,03,21,18,12,7.00
2022,03,21,18,13,7.00
2022,03,21,18,14,7.00
2022,03,21,18,15,7.00
2022,03,21,18,16,7.00
2022,03,21,18,17,7.00
2022,03,21,18,18,7.00
2022,03,21,18,19,7.00
2022,03,21,18,20,7.00
2022,03,21,18,21,7.00
2022,03,21,18,22,7.00
2022,03,21,18,23,7.00
2022,03,21,18,24,7.00
2022,03,21,18,25,6.90
2022,03,21,18,26,6.90
2022,03,21,18,27,6.90
2022,03,21,18,28,6.90
2022,03,21,18,29,6.90
2022,03,21,18,30,6.90
2022,03,21,18,31,6.90
2022,03,21,18,32,6.90
2022,03,21,18,33,6.90
2022,03,21,18,34,6.90
2022,03,21,18,35,6.90
2022,03,21,18,36,6.90
2022,03,21,18,37,6.90
2022,03,21,18,38,6.90
2022,03,21,18,39,6.90
2022,03,21,18,40,6.90
2022,03,21,18,41,6.90
2022,03,21,18,42,6.90
2022,03,21,18,43,6.90
2022,03,21,18,44,6.90
2022,03,21,18,45,6.90
2022,03,21,18,46,6.90
2022,03,21,18,47,6.90
2022,03,21,18,48,6.90
2022,03,21,18,49,6.90
2022,03,21,18,50,6.90
2022,03,21,18,51,6.90
2022,03,21,18,52,6.90
2022,03,21,18,53,6.90
2022,03,21,18,54,6.90
2022,03,21,18,55,6.90
2022,03,21,18,56,6.90
2022,03,21,18,57,6.90
2022,03,21,18,58,6.80
2022,03,21,18,59,6.80
2022,03,21,19,00,6.90
2022,03,21,19,01,6.90
2022,03,21,19,02,6.90
2022,03,21,19,03,6.90
2022,03,21,19,04,6.90
2022,03,21,19,05,6.90
2022,03,21,19,06,6.90
2022,03,21,19,07,6.90
2022,03,21,19,08,6.90
2022,03,21,19,09,6.90
2022,03,21,19,10,6.90
2022,03,21,19,11,6.90
2022,03,21,19,12,6.90
2022,03,21,19,13,6.90
2022,03,21,19,14,6.90
2022,03,21,19,15,6.90
2022,03,21,19,16,6.90
2022,03,21,19,17,6.80
2022,03,21,19,18,6.90
2022,03,21,19,19,6.90
2022,03,21,19,20,6.90
2022,03,21,19,21,6.90
2022,03,21,19,22,6.90
2022,03,21,19,23,6.90
2022,03,21,19,24,6.90
2022,03,21,19,25,6.90
2022,03,21,19,26,6.90
2022,03,21,19,27,6.90
2022,03,21,19,28,6.90
2022,03,21,19,29,6.90
2022,03,21,19,30,6.90
2022,03,21,19,31,6.90
2022,03,21,19,32,6.90
2022,03,21,19,33,6.90
2022,03,21,19,34,6.90
2022,03,21,19,35,6.90
2022,03,21,19,36,6.90
2022,03,21,19,37,6.80
2022,03,21,19,38,6.80
2022,03,21,19,39,6.80
2022,03,21,19,40,6.80
2022,03,21,19,41,6.90
2022,03,21,19,42,6.90
2022,03,21,19,43,6.90
2022,03,21,19,44,6.90
2022,03,21,19,45,6.90
2022,03,21,19,46,6.90
2022,03,21,19,47,6.90
2022,03,21,19,48,6.90
2022,03,21,19,49,6.90
2022,03,21,19,50,6.90
2022,03,21,19,51,6.90
2022,03,21,19,52,6.90
2022,03,21,19,53,6.90
2022,03,21,19,54,6.90
2022,03,21,19,55,6.90
2022,03,21,19,56,6.90
2022,03,21,19,57,6.90
2022,03,21,19,58,6.90
2022,03,21,19,59,6.90
2022,03,21,20,00,6.90
2022,03,21,20,01,6.90
2022,03,21,20,02,6.90
2022,03,21,20,03,6.90
2022,03,21,20,04,6.90
2022,03,21,20,05,6.90
2022,03,21,20,06,6.90
2022,03,21,20,07,6.90
2022,03,21,20,08,6.90
2022,03,21,20,09,6.90
2022,03,21,20,10,6.90
2022,03,21,20,11,6.90
2022,03,21,20,12,7.00
2022,03,21,20,13,7.00
2022,03,21,20,14,7.00
2022,03,21,20,15,7.00
2022,03,21,20,16,7.00
2022,03,21,20,17,7.00
2022,03,21,20,18,7.00
2022,03,21,20,19,7.00
2022,03,21,20,20,7.00
2022,03,21,20,21,7.00
2022,03,21,20,22,7.00
2022,03,21,20,23,7.00
2022,03,21,20,24,7.00
2022,03,21,20,25,7.00
2022,03,21,20,26,7.00
2022,03,21,20,27,7.00
2022,03,21,20,28,7.00
2022,03,21,20,29,7.00
2022,03,21,20,30,7.00
2022,03,21,20,31,7.00
2022,03,21,20,32,7.00
2022,03,21,20,33,7.00
2022,03,21,20,34,7.00
2022,03,21,20,35,7.00
2022,03,21,20,36,7.00
2022,03,21,20,37,7.00
2022,03,21,20,38,7.00
2022,03,21,20,39,6.90
2022,03,21,20,40,6.90
2022,03,21,20,41,7.00
2022,03,21,20,42,6.90
2022,03,21,20,43,6.90
2022,03,21,20,44,6.90
2022,03,21,20,45,6.90
2022,03,21,20,46,6.90
2022,03,21,20,47,6.90
2022,03,21,20,48,6.90
2022,03,21,20,49,6.90
2022,03,21,20,50,6.90
2022,03,21,20,51,6.90
2022,03,21,20,52,6.90
2022,03,21,20,53,6.90
2022,03,21,20,54,6.90
2022,03,21,20,55,6.90
2022,03,21,20,56,6.90
2022,03,21,20,57,6.90
2022,03,21,20,58,6.90
2022,03,21,20,59,6.90
2022,03,21,21,00,6.90
2022,03,21,21,01,6.90
2022,03,21,21,02,6.90
2022,03,21,21,03,6.90
2022,03,21,21,04,6.90
2022,03,21,21,05,6.90
2022,03,21,21,06,6.90
2022,03,21,21,07,6.90
2022,03,21,21,08,6.90
2022,03,21,21,09,6.90
2022,03,21,21,10,6.90
2022,03,21,21,11,6.90
2022,03,21,21,12,7.00
2022,03,21,21,13,6.90
2022,03,21,21,14,7.00
2022,03,21,21,15,7.00
2022,03,21,21,16,7.00
2022,03,21,21,17,7.00
2022,03,21,21,18,7.00
2022,03,21,21,19,7.00
2022,03,21,21,20,7.00
2022,03,21,21,21,7.00
2022,03,21,21,22,7.00
2022,03,21,21,23,6.90
2022,03,21,21,24,7.00
2022,03,21,21,25,6.90
2022,03,21,21,26,6.90
2022,03,21,21,27,6.90
2022,03,21,21,28,6.90
2022,03,21,21,29,6.90
2022,03,21,21,30,6.90
2022,03,21,21,31,6.90
2022,03,21,21,32,6.90
2022,03,21,21,33,6.90
2022,03,21,21,34,6.90
2022,03,21,21,35,6.90
2022,03,21,21,36,6.90
2022,03,21,21,37,6.90
2022,03,21,21,38,6.90
2022,03,21,21,39,6.90
2022,03,21,21,40,6.90
2022,03,21,21,41,6.90
2022,03,21,21,42,6.90
2022,03,21,21,43,6.90
2022,03,21,21,44,6.90
2022,03,21,21,45,6.90
2022,03,21,21,46,6.90
2022,03,21,21,47,6.90
2022,03,21,21,48,6.90
2022,03,21,21,49,6.90
2022,03,21,21,50,6.90
2022,03,21,21,51,6.90
2022,03,21,21,52,6.90
2022,03,21,21,53,6.90
2022,03,21,21,54,6.90
2022,03,21,21,55,6.90
2022,03,21,21,56,6.90
2022,03,21,21,57,6.90
2022,03,21,21,58,6.90
2022,03,21,21,59,6.90
2022,03,21,22,00,6.90
2022,03,21,22,01,6.90
2022,03,21,22,02,6.90
2022,03,21,22,03,6.90
2022,03,21,22,04,6.90
2022,03,21,22,05,6.90
2022,03,21,22,06,6.90
2022,03,21,22,07,6.90
2022,03,21,22,08,7.00
2022,03,21,22,09,6.90
2022,03,21,22,10,7.00
2022,03,21,22,11,6.90
2022,03,21,22,12,6.90
2022,03,21,22,13,6.90
2022,03,21,22,14,6.90
2022,03,21,22,15,6.90
2022,03,21,22,16,6.90
2022,03,21,22,17,6.90
2022,03,21,22,18,6.90
2022,03,21,22,19,6.90
2022,03,21,22,20,6.90
2022,03,21,22,21,6.90
2022,03,21,22,22,6.90
2022,03,21,22,23,6.90
2022,03,21,22,24,6.90
2022,03,21,22,25,6.90
2022,03,21,22,26,6.90
2022,03,21,22,27,6.90
2022,03,21,22,28,6.90
2022,03,21,22,29,6.90
2022,03,21,22,30,6.90
2022,03,21,22,31,6.90
2022,03,21,22,32,6.90
2022,03,21,22,33,6.90
2022,03,21,22,34,6.90
2022,03,21,22,35,7.00
2022,03,21,22,36,7.00
2022,03,21,22,37,7.00
2022,03,21,22,38,7.00
2022,03,21,22,39,7.00
2022,03,21,22,40,7.00
2022,03,21,22,41,7.00
2022,03,21,22,42,7.10
2022,03,21,22,43,7.10
2022,03,21,22,44,7.10
2022,03,21,22,45,7.10
2022,03,21,22,46,7.10
2022,03,21,22,47,7.10
2022,03,21,22,48,7.10
2022,03,21,22,49,7.10
2022,03,21,22,50,7.10
2022,03,21,22,51,7.10
2022,03,21,22,52,7.10
2022,03,21,22,53,7.10
2022,03,21,22,54,7.10
2022,03,21,22,55,7.10
2022,03,21,22,56,7.10
2022,03,21,22,57,7.10
2022,03,21,22,58,7.10
2022,03,21,22,59,7.10
2022,03,21,23,00,7.10
2022,03,21,23,01,7.10
2022,03,21,23,02,7.20
2022,03,21,23,03,7.20
2022,03,21,23,04,7.20
2022,03,21,23,05,7.20
2022,03,21,23,06,7.20
2022,03,21,23,07,7.20
2022,03,21,23,08,7.20
2022,03,21,23,09,7.20
2022,03,21,23,10,7.20
2022,03,21,23,11,7.30
2022,03,21,23,12,7.30
2022,03,21,23,13,7.30
2022,03,21,23,14,7.30
2022,03,21,23,15,7.30
2022,03,21,23,16,7.30
2022,03,21,23,17,7.30
2022,03,21,23,18,7.30
2022,03,21,23,19,7.30
2022,03,21,23,20,7.30
2022,03,21,23,21,7.30
2022,03,21,23,22,7.30
2022,03,21,23,23,7.30
2022,03,21,23,24,7.30
2022,03,21,23,25,7.30
2022,03,21,23,26,7.30
2022,03,21,23,27,7.30
2022,03,21,23,28,7.30
2022,03,21,23,29,7.30
2022,03,21,23,30,7.30
2022,03,21,23,31,7.30
2022,03,21,23,32,7.30
2022,03,21,23,33,7.30
2022,03,21,23,34,7.30
2022,03,21,23,35,7.30
2022,03,21,23,36,7.30
2022,03,21,23,37,7.30
2022,03,21,23,38,7.30
2022,03,21,23,39,7.30
2022,03,21,23,40,7.30
2022,03,21,23,41,7.30
2022,03,21,23,42,7.30
2022,03,21,23,43,7.30
2022,03,21,23,44,7.30
2022,03,21,23,45,7.30
2022,03,21,23,46,7.30
2022,03,21,23,47,7.30
2022,03,21,23,48,7.30
2022,03,21,23,49,7.30
2022,03,21,23,50,7.30
2022,03,21,23,51,7.30
2022,03,21,23,52,7.30
2022,03,21,23,53,7.30
2022,03,21,23,54,7.30
2022,03,21,23,55,7.30
2022,03,21,23,56,7.30
2022,03,21,23,57,7.30
2022,03,21,23,58,7.30
2022,03,21,23,59,7.30
